(55551) = 1976 JX7 = 1995 UH58 = 2000 QY187 = 2001 XZ88

Discovered at Socorro on 2001-12-10 by LINEAR.

Orbit

Orbit type: Main Belt

Note: WebGL enabled browser required.

epoch2023-09-13.0
epoch JD2460200.5
perihelion date2021-10-05.96389
perihelion JD2459493.46389
argument of perihelion (°)210.62081
ascending node (°)18.48008
inclination (°)6.69426
eccentricity0.0440229
perihelion distance (AU)3.0428644
Tisserand w.r.t. Jupiter3.2
ΔV w.r.t. Earth (km/sec)11.0
semimajor axis (AU)3.1829889
mean anomaly (°)122.71362
mean daily motion (°/day)0.17356060
aphelion distance (AU)3.323
period (years)5.68
P-vector [x]-0.65582980
P-vector [y]-0.66685112
P-vector [z]-0.35383168
Q-vector [x]0.75400395
Q-vector [y]-0.55569336
Q-vector [z]-0.35026123
absolute magnitude14.73
phase slope0.15
uncertainty0
referenceMPEC 2024-A55
observations used1012
oppositions20
arc length (days)17385
first opposition used1976
last opposition used2023
residual rms (arc-secs)0.77
perturbers coarse indicatorM-v
perturbers precise indicator003Ek
first observation date used1976-05-02.0
last observation date used2023-12-07.0
computer nameMPCLINUX
JD of orbit computation2455899.775150
perihelion JD uncertainty (days)4.0930E-04
argument of perihelion uncertainty (°)8.9334E-05
ascending node uncertainty (°)5.2953E-05
inclination uncertainty (°)7.6425E-06
eccentricity uncertainty 6.7498E-08
perihelion distance uncertainty (AU)2.0814E-07
Minimum Orbit Intersection Distances (in AU)
for orbit epoch: 2460200.5, reference: E2024-A55
Mercury2.58359
Venus2.32248
Earth2.03472
Mars1.43338
Jupiter1.65107
Saturn5.79705
Uranus15.3258
Neptune26.5284

Observations

1035 total observations over interval: 1976 05 02.17783 – 2023 12 07.119088
These data are available for download (format description).

Date (UT) J2000 RA J2000 Dec Magn Location Ref
1976 05 02.17783 14 40 12.81 -19 54 45.7 19.0   809 – European Southern Observatory, La Silla MPC 6096
1995 10 17.22529 01 28 17.59 +10 06 20.8 19.2 V 691 – Steward Observatory, Kitt Peak-Spacewatch MPS 32161
1995 10 17.24641 01 28 16.54 +10 06 17.1 19.1 V 691 – Steward Observatory, Kitt Peak-Spacewatch MPS 32161
1995 10 17.26759 01 28 15.55 +10 06 13.5 19.1 V 691 – Steward Observatory, Kitt Peak-Spacewatch MPS 32161
1995 10 22.30076 01 24 17.69 +09 51 10.3 19.3 V 691 – Steward Observatory, Kitt Peak-Spacewatch MPS 32161
1995 10 22.32407 01 24 16.58 +09 51 06.3 20.0 V 691 – Steward Observatory, Kitt Peak-Spacewatch MPS 32161
1995 10 22.34585 01 24 15.54 +09 51 02.5 19.5 V 691 – Steward Observatory, Kitt Peak-Spacewatch MPS 32161
1995 10 28.23639 01 19 45.57 +09 33 39.3   691 – Steward Observatory, Kitt Peak-Spacewatch MPS 42788
1995 10 28.25766 01 19 44.62 +09 33 35.9 19.4 V 691 – Steward Observatory, Kitt Peak-Spacewatch MPS 42788
1995 10 28.28168 01 19 43.53 +09 33 31.6   691 – Steward Observatory, Kitt Peak-Spacewatch MPS 42788
1998 03 29.18377 11 07 14.99 +10 30 33.7 19.2   704 – Lincoln Laboratory ETS, New Mexico MPS 75507
1998 03 29.20388 11 07 14.25 +10 30 36.1 19.7   704 – Lincoln Laboratory ETS, New Mexico MPS 75507
1998 03 29.22404 11 07 13.35 +10 30 39.2 19.7   704 – Lincoln Laboratory ETS, New Mexico MPS 75507
1998 03 29.24432 11 07 12.54 +10 30 40.0 19.4   704 – Lincoln Laboratory ETS, New Mexico MPS 75507
1998 03 29.26464 11 07 11.71 +10 30 40.1 19.4   704 – Lincoln Laboratory ETS, New Mexico MPS 75507
2000 08 26.27860 22 48 27.95 -14 43 33.0 18.4   704 – Lincoln Laboratory ETS, New Mexico MPS 18362
2000 08 26.29206 22 48 27.27 -14 43 34.4 19.1   704 – Lincoln Laboratory ETS, New Mexico MPS 18362
2000 08 26.30550 22 48 26.59 -14 43 38.0 19.2   704 – Lincoln Laboratory ETS, New Mexico MPS 18362
2000 08 26.33251 22 48 25.37 -14 43 43.9 19.2   704 – Lincoln Laboratory ETS, New Mexico MPS 18362
2000 09 04.32502 22 41 23.18 -15 12 14.7 19.3   704 – Lincoln Laboratory ETS, New Mexico MPS 18362
2000 09 04.35200 22 41 21.91 -15 12 19.7 19.0   704 – Lincoln Laboratory ETS, New Mexico MPS 18362
2000 09 04.36553 22 41 21.32 -15 12 22.3 19.7   704 – Lincoln Laboratory ETS, New Mexico MPS 18362
2001 10 14.32291 03 09 17.43 +21 25 44.4 20.1   704 – Lincoln Laboratory ETS, New Mexico MPS 45220
2001 10 14.33887 03 09 16.76 +21 25 42.2 20.4   704 – Lincoln Laboratory ETS, New Mexico MPS 45220
2001 10 14.37039 03 09 15.54 +21 25 42.7 20.0   704 – Lincoln Laboratory ETS, New Mexico MPS 45220
2001 10 14.38616 03 09 14.82 +21 25 42.2 20.3   704 – Lincoln Laboratory ETS, New Mexico MPS 45220
2001 10 19.48070 03 05 48.86 +21 22 25.5 19.9   644 – Palomar Mountain/NEAT MPS 45220
2001 10 19.49257 03 05 48.33 +21 22 24.9 19.5   644 – Palomar Mountain/NEAT MPS 45220
2001 10 19.50311 03 05 47.87 +21 22 24.4 19.8   644 – Palomar Mountain/NEAT MPS 45220
2001 10 21.34488 03 04 27.99 +21 20 40.4 19.6   704 – Lincoln Laboratory ETS, New Mexico MPS 45220
2001 10 21.36121 03 04 27.19 +21 20 38.4 20.1   704 – Lincoln Laboratory ETS, New Mexico MPS 45220
2001 10 21.37755 03 04 26.45 +21 20 36.6 20.1   704 – Lincoln Laboratory ETS, New Mexico MPS 45220
2001 10 21.39389 03 04 25.70 +21 20 36.7 19.8   704 – Lincoln Laboratory ETS, New Mexico MPS 45220
2001 10 21.41023 03 04 24.94 +21 20 35.1 20.1   704 – Lincoln Laboratory ETS, New Mexico MPS 45220
2001 10 26.41189 03 00 34.66 +21 14 27.3 19.6   644 – Palomar Mountain/NEAT MPS 45220
2001 10 26.42367 03 00 34.10 +21 14 26.4 19.6   644 – Palomar Mountain/NEAT MPS 45220
2001 10 26.43985 03 00 33.30 +21 14 24.9 19.8   644 – Palomar Mountain/NEAT MPS 45220
2001 11 10.37141 02 48 05.95 +20 45 39.8 18.9   704 – Lincoln Laboratory ETS, New Mexico MPS 45220
2001 11 10.38581 02 48 05.13 +20 45 37.4 19.4   704 – Lincoln Laboratory ETS, New Mexico MPS 45220
2001 11 10.40021 02 48 04.38 +20 45 35.6 19.7   704 – Lincoln Laboratory ETS, New Mexico MPS 45220
2001 11 19.21908 02 40 49.33 +20 23 48.4 18.9   704 – Lincoln Laboratory ETS, New Mexico MPS 45220
2001 11 19.23399 02 40 48.66 +20 23 46.1 19.6   704 – Lincoln Laboratory ETS, New Mexico MPS 45220
2001 11 19.24887 02 40 47.85 +20 23 41.6 20.5   704 – Lincoln Laboratory ETS, New Mexico MPS 45220
2001 11 19.26358 02 40 47.20 +20 23 41.4 19.5   704 – Lincoln Laboratory ETS, New Mexico MPS 45220
2001 11 19.27828 02 40 46.53 +20 23 39.3 19.8   704 – Lincoln Laboratory ETS, New Mexico MPS 45220
2001 11 24.21284 02 37 01.26 +20 11 01.5 20.0   704 – Lincoln Laboratory ETS, New Mexico MPS 49735
2001 11 24.22794 02 37 00.65 +20 10 58.6 19.9   704 – Lincoln Laboratory ETS, New Mexico MPS 49735
2001 11 24.24349 02 36 59.94 +20 10 56.4 19.8   704 – Lincoln Laboratory ETS, New Mexico MPS 49735
2001 11 24.25823 02 36 59.25 +20 10 54.5 19.9   704 – Lincoln Laboratory ETS, New Mexico MPS 49735
2001 11 24.27274 02 36 58.59 +20 10 52.2 19.8   704 – Lincoln Laboratory ETS, New Mexico MPS 49735
2001 12 10.21170 02 27 24.04 +19 34 02.4 19.6   704 – Lincoln Laboratory ETS, New Mexico MPS 45220
2001 12 10.22718 02 27 23.63 +19 34 01.6 20.4   704 – Lincoln Laboratory ETS, New Mexico MPS 45220
2001 12 10.24256 02 27 23.11 +19 33 58.1 19.9   704 – Lincoln Laboratory ETS, New Mexico MPS 45220
2001 12 10.25794 02 27 22.67 +19 33 57.4 20.0   704 – Lincoln Laboratory ETS, New Mexico MPS 45220
2001 12 15.15782 02 25 24.86 +19 25 16.5 20.3   704 – Lincoln Laboratory ETS, New Mexico MPS 45220
2001 12 15.19265 02 25 24.16 +19 25 11.2 20.2   704 – Lincoln Laboratory ETS, New Mexico MPS 45220
2001 12 15.20776 02 25 23.76 +19 25 10.6 20.5   704 – Lincoln Laboratory ETS, New Mexico MPS 45220
2001 12 18.09139 02 24 29.10 +19 20 54.7 19.8   704 – Lincoln Laboratory ETS, New Mexico MPS 45220
2001 12 18.10649 02 24 28.81 +19 20 52.8 20.0   704 – Lincoln Laboratory ETS, New Mexico MPS 45220
2001 12 18.12160 02 24 28.57 +19 20 50.9 20.2   704 – Lincoln Laboratory ETS, New Mexico MPS 45220
2001 12 18.13691 02 24 28.30 +19 20 50.8 20.1   704 – Lincoln Laboratory ETS, New Mexico MPS 45220
2001 12 19.08691 02 24 12.78 +19 19 35.3 20.2   704 – Lincoln Laboratory ETS, New Mexico MPS 45220
2001 12 19.10220 02 24 12.51 +19 19 33.6 20.3   704 – Lincoln Laboratory ETS, New Mexico MPS 45220
2001 12 19.13259 02 24 11.98 +19 19 31.2 19.9   704 – Lincoln Laboratory ETS, New Mexico MPS 45220
2002 12 13.385600 08 23 45.685 +28 30 55.14 19.82 V 645 – Apache Point-Sloan Digital Sky Survey MPS 81279
2002 12 13.389072 08 23 45.600 +28 30 55.82 20.54   645 – Apache Point-Sloan Digital Sky Survey MPS 81279
2003 01 10.30161 08 04 55.55 +30 04 46.4 19.0   704 – Lincoln Laboratory ETS, New Mexico MPS 71593
2003 01 10.31776 08 04 54.69 +30 04 49.6 19.3   704 – Lincoln Laboratory ETS, New Mexico MPS 71593
2003 01 10.33378 08 04 53.77 +30 04 52.6 19.2   704 – Lincoln Laboratory ETS, New Mexico MPS 71593
2003 01 10.34970 08 04 52.91 +30 04 55.2 19.3   704 – Lincoln Laboratory ETS, New Mexico MPS 71593
2003 01 10.36575 08 04 52.03 +30 04 58.1 19.1   704 – Lincoln Laboratory ETS, New Mexico MPS 71593
2003 01 11.28111 08 04 02.99 +30 07 30.3 18.9   704 – Lincoln Laboratory ETS, New Mexico MPS 71593
2003 01 11.28539 08 04 02.68 +30 07 31.6 19.0 R 858 – Tebbutt Observatory, Edgewood MPS 71593
2003 01 11.29293 08 04 02.23 +30 07 33.3 19.0 R 858 – Tebbutt Observatory, Edgewood MPS 71593
2003 01 11.29675 08 04 02.15 +30 07 32.8 19.3   704 – Lincoln Laboratory ETS, New Mexico MPS 71593
2003 01 11.30046 08 04 01.85 +30 07 33.9 18.8 R 858 – Tebbutt Observatory, Edgewood MPS 71593
2003 01 11.31057 08 04 01.44 +30 07 35.6 18.9   704 – Lincoln Laboratory ETS, New Mexico MPS 71593
2003 01 11.31302 08 04 01.19 +30 07 35.6 19.5   704 – Lincoln Laboratory ETS, New Mexico MPS 71593
2003 01 11.32539 08 04 00.63 +30 07 38.1 19.5   704 – Lincoln Laboratory ETS, New Mexico MPS 71593
2003 01 11.32736 08 04 00.44 +30 07 38.7 19.7   704 – Lincoln Laboratory ETS, New Mexico MPS 71593
2003 01 11.34089 08 03 59.74 +30 07 41.3 19.5   704 – Lincoln Laboratory ETS, New Mexico MPS 71593
2003 01 11.34165 08 03 59.59 +30 07 40.9 19.6   704 – Lincoln Laboratory ETS, New Mexico MPS 71593
